STARLINK-1556, 46033

Orbit data source: Space-Track

STARLINK-1556, 46033 is a payload satellite owned by SpaceX/Seattle (US) in LEO that was launched on Fri, 07 Aug 2020 UTC via an FALCON 9 launch vehicle from the Air Force Eastern Test Range (AFETR). Payload-class satellites include a variety of spacecraft equipped with specific instruments for various scientific and technological missions. These include communications satellites like Starlink; space stations such as the ISS; scientific satellites like the Hubble; Earth observation satellites from companies like Planet Labs, Umbra, and HawkEye 360; GPS; miniature CubeSats for education and research; and military/defense satellites.

Loading next visibility...
Identifier
46033, 2020-055G
Orbit
LEO
Country
Flag of USUS
Related business
Manufacturer
SpaceX/Seattle
Mission
Operational Commercial Communications
Bus & Motor
STARLINK, Unknown motor
Mass
260 kg wet, ~248 kg dry
Launch date (UTC)
2020-08-07 (5 years ago)
Launch vehicle
FALCON 9
Launch site
Air Force Eastern Test Range (AFETR)
Object type
Payload
Rocket body
Debris
Shape & HBR
Box + 1 Pan, 10.1 m
Radar Cross Section
13.562 m², Large (>1 m²)

Expand to show TLE details & history
Last TLE update: 17 hours ago

TLE from 17 hours ago
0 STARLINK-1556
1 46033U 20055G   25291.02409870 -.00000815  00000-0 -35894-4 0  9996
2 46033  53.0538  47.0674 0000644 104.1864 255.9196 15.06381048287367
Epoch: 2025-10-18T00:34Z
TLE epoch observation values (Epoch: 2025-10-18T00:34:42.127Z)
Latitude
-0.00008°
Longitude
11.63076°
Altitude
548.257 km
Speed
7.589 km/s
True Right ascension
03h 08m 16s
True Declination
0° 00' 00"
Sunlit
Object was in full shadow at epoch
Visualization orbit readout
Latitude
Unknown
Longitude
Unknown
Altitude
Unknown
Speed
Unknown
Apparent Right ascension
Unknown
Apparent Declination
Unknown
Sunlit
N/A
Visualization observer readout
Local Sidereal Time
12:51:14
Azimuth
Unknown
Elevation
Unknown
Doppler factor
Unknown
Orbital elements
Apogee altitude
547.986 km
Perigee altitude
547.094 km
Semi-major axis
6,925.677 km
Eccentricity
0.00006
Inclination
53.0538°
RAAN
47.0674°
Arg. of periapsis
104.1864°
True anomaly
255.91244°
Mean anomaly
255.9196°
Eccentric anomaly
255.91602°
Mean motion
3.76574 °/min
Orbital period
95.6 mins
BSTAR
-0.000035894
Loading maneuver chart data...
Computing Atmospheric mass density...
Loading historical data...
Loading historical data...
Loading historical data...
Loading historical data...
Loading historical data...
Loading historical data...
Loading historical data...

Documentation

Showing up to 5 results
|